Retour au catalogue

TAURUS R/B

ActifSSO
NORAD 26103·ROCKET BODY·🇺🇸 United States

Lancé Mar 12, 2000 depuis Vandenberg Space Force Base

Loading…

Prochains Passages (prochaines 24 heures)

TLE

FraisSource: Space-Track

Époque: Sep 14, 2026, 07:34 UTC

1 26103U 00014B   26257.31561387  .00009247  00000-0  20938-3 0  9990
2 26103  97.4269 194.7946 0014751   6.7111 353.4331 15.43234916459171

Suivez TAURUS R/B en temps réel avec AllMySat

Download on the App Store